Jadwal Kapal Pelni Dobonsolo

Jadwal Keberangkatan Kapal Pelni Dobonsolo Terbaru Bulan Ini – Bagi anda yang akan berpergian dengan menggunakan kapal pelni dengan tujuan rute kapal pelni Tanjung Priok Jakarta, Surabaya, Makassar, Bau Bau, Ambon, Sorong, Serui, Jayapura, anda bisa berlayar dengan tujuan daerah yang sudah kami sebutkan tadi dengan menggunakan kapal pelni KM Dobonsolo.

Di karenakan rute berlayar kapal KM Dobonsolo meliputi tanjung priok Jakarta, tanjung pandan Belitung, Pontianak, tanjung emas Semarang, Karimunjawa, tanjung perak Surabaya, Kumai, Sampit, bagi anda yang sdang bingung mencari informasi jadwal keberangkatan kapal laut dobonsolo, saya sudah mempersiapkan informasi jadwal kapal dobonsolo terbaru bulan ini, sebelum kami membahas lebih jauh mengenai jadwal terbaru keberangkatan kapal dobonsolo bulan ini.

Jadwal Kapal Laut Pelni Dobonsolo Terbaru

Jadwal Kapal Pelni Dobonsolo Terbaru

Untuk pemesanan tiket kapal pelni dobonsolo untuk saat ini sudah bisa anda akses secara online, jadi tidak perlu langsung datang ke pelabuhan hanya untuk pemesanan tiket kapal pelni, anda bisa membeli melalui online yang tersedia hanya di situs resmi pelni, bagi calon penumpang kapal pelni yang akan melakukan perjalan ke Batulicin, Makassar, Sape Bima, Labuan Bajo, Marapokot, Larantuka Flores timur, Kalabahi, Tenau Kupang, Ende, Waingapu Sumba timur, Reo.

Anda bisa menggunakan kapal pelni km dobonsolo, di karenakan rute kapal pelni dobonsolo meliputi Tanjung Priok Jakarta, Surabaya, Makassar, Bau Bau, Ambon, Sorong, Serui, Jayapura, nah bagi anda yang lagi bingung mencari informasi jadwal kapal dobonsolo terbaru dan harga tiket kapal pelni dobonsolo anda bisa cek jadwal keberangkatan kapal pelni dobonsolo bulan ini di tabel di bawah ini sebagai berikut.

Jadwal Kapal Pelni Dobonsolo Terbaru

BERANGKAT DARI PELABUHANTIBA DI PELABUHANWAKTU KEBERANGKATAN KAPAL PELNI DOBONSOLOWAKTU TIBA KAPAL PELNI DOBONSOLO
SERUISORONG07-11-2018 | 17:0008-11-2018 | 14:00
SORONGAMBON08-11-2018 | 16:0009-11-2018 | 11:00
AMBONTANJUNG PERAK [SURABAYA]09-11-2018 | 13:0011-11-2018 | 22:00
TANJUNG PERAK [SURABAYA]TANJUNG PRIOK [JAKARTA]11-11-2018 | 23:0012-11-2018 | 22:00
TANJUNG PRIOK [JAKARTA]TANJUNG PERAK [SURABAYA]13-11-2018 | 08:0014-11-2018 | 06:00
TANJUNG PERAK [SURABAYA]MAKASSAR14-11-2018 | 09:0015-11-2018 | 14:00
MAKASSARBAU-BAU15-11-2018 | 17:0016-11-2018 | 08:00
BAU-BAUAMBON16-11-2018 | 10:0017-11-2018 | 11:00
AMBONSORONG17-11-2018 | 14:0018-11-2018 | 11:00
SORONGSERUI18-11-2018 | 14:0019-11-2018 | 12:00
SERUIJAYAPURA19-11-2018 | 14:0020-11-2018 | 09:00
JAYAPURASERUI20-11-2018 | 14:0021-11-2018 | 08:00
SERUISORONG21-11-2018 | 09:0022-11-2018 | 06:00
SORONGAMBON22-11-2018 | 08:0023-11-2018 | 03:00
AMBONBAU-BAU23-11-2018 | 05:0024-11-2018 | 02:00
BAU-BAUMAKASSAR24-11-2018 | 04:0024-11-2018 | 18:00
MAKASSARTANJUNG PERAK [SURABAYA]24-11-2018 | 20:0025-11-2018 | 21:00
TANJUNG PERAK [SURABAYA]TANJUNG PRIOK [JAKARTA]25-11-2018 | 23:0026-11-2018 | 22:00
TANJUNG PRIOK [JAKARTA]TANJUNG PERAK [SURABAYA]27-11-2018 | 05:0028-11-2018 | 06:00
TANJUNG PERAK [SURABAYA]MAKASSAR28-11-2018 | 09:0029-11-2018 | 14:00
MAKASSARBAU-BAU29-11-2018 | 17:0030-11-2018 | 08:00
BAU-BAUAMBON30-11-2018 | 10:0001-12-2018 | 11:00
AMBONSORONG01-12-2018 | 14:0002-12-2018 | 11:00
SORONGSERUI02-12-2018 | 14:0003-12-2018 | 12:00
SERUIJAYAPURA03-12-2018 | 14:0004-12-2018 | 09:00
JAYAPURASERUI04-12-2018 | 14:0005-12-2018 | 08:00
SERUISORONG05-12-2018 | 09:0006-12-2018 | 06:00
SORONGAMBON06-12-2018 | 08:0007-12-2018 | 03:00
AMBONBAU-BAU07-12-2018 | 05:0008-12-2018 | 02:00
BAU-BAUMAKASSAR08-12-2018 | 04:0008-12-2018 | 18:00
MAKASSARTANJUNG PERAK [SURABAYA]08-12-2018 | 20:0009-12-2018 | 21:00
TANJUNG PERAK [SURABAYA]TANJUNG PRIOK [JAKARTA]09-12-2018 | 23:0010-12-2018 | 22:00
ERANGKAT DARI PELABUHANTIBA DI PELABUHANWAKTU KEBERANGKATAN KAPAL PELNI DOBONSOLOWAKTU TIBA KAPAL PELNI DOBONSOLO
TANJUNG PRIOK [JAKARTA]TANJUNG PERAK [SURABAYA]10-01-2019 | 23:0011-01-2019 | 23:00
TANJUNG PERAK [SURABAYA]MAKASSAR12-01-2019 | 03:0013-01-2019 | 07:00
MAKASSARBAU-BAU13-01-2019 | 10:0014-01-2019 | 00:01
BAU-BAUAMBON14-01-2019 | 02:0015-01-2019 | 03:00
AMBONSORONG15-01-2019 | 05:0016-01-2019 | 01:00
SORONGSERUI16-01-2019 | 04:0017-01-2019 | 02:00
SERUIJAYAPURA17-01-2019 | 04:0017-01-2019 | 23:00
JAYAPURASERUI18-01-2019 | 04:0018-01-2019 | 22:00
SERUISORONG18-01-2019 | 23:5919-01-2019 | 22:00
SORONGAMBON19-01-2019 | 23:5920-01-2019 | 19:00
AMBONBAU-BAU20-01-2019 | 21:0021-01-2019 | 18:00
BAU-BAUMAKASSAR21-01-2019 | 20:0022-01-2019 | 09:00
MAKASSARTANJUNG PERAK [SURABAYA]22-01-2019 | 11:0023-01-2019 | 11:00
TANJUNG PERAK [SURABAYA]TANJUNG PRIOK [JAKARTA]23-01-2019 | 13:0024-01-2019 | 12:00
TANJUNG PRIOK [JAKARTA]TANJUNG PERAK [SURABAYA]24-01-2019 | 20:0025-01-2019 | 20:00
TANJUNG PERAK [SURABAYA]MAKASSAR26-01-2019 | 01:0027-01-2019 | 05:00
MAKASSARBAU-BAU27-01-2019 | 08:0027-01-2019 | 22:00
BAU-BAUAMBON27-01-2019 | 23:5929-01-2019 | 01:00
AMBONSORONG29-01-2019 | 05:0030-01-2019 | 02:00
SORONGSERUI30-01-2019 | 05:0031-01-2019 | 03:00
SERUIJAYAPURA31-01-2019 | 06:0001-02-2019 | 01:00
JAYAPURASERUI01-02-2019 | 06:0002-02-2019 | 00:01
SERUISORONG02-02-2019 | 02:0003-02-2019 | 00:01
SORONGAMBON03-02-2019 | 02:0003-02-2019 | 21:00
AMBONBAU-BAU03-02-2019 | 23:0004-02-2019 | 20:00
BAU-BAUMAKASSAR04-02-2019 | 22:0005-02-2019 | 11:00
MAKASSARTANJUNG PERAK [SURABAYA]05-02-2019 | 13:0006-02-2018 | 13:00
TANJUNG PERAK [SURABAYA]TANJUNG PRIOK [JAKARTA]06-02-2019 | 15:0007-02-2019 | 14:00
TANJUNG PRIOK [JAKARTA]TANJUNG PERAK [SURABAYA]07-02-2019 | 22:0008-02-2019 | 22:00
TANJUNG PERAK [SURABAYA]MAKASSAR09-02-2019 | 02:0010-02-2019 | 06:00
MAKASSARBAU-BAU10-02-2019 | 09:0010-02-2019 | 23:00
BAU-BAUAMBON11-02-2019 | 01:0012-02-2019 | 02:00
AMBONSORONG12-02-2019 | 05:0013-02-2019 | 01:00
SORONGSERUI13-02-2019 | 04:0014-02-2019 | 02:00
SERUIJAYAPURA14-02-2019 | 04:0014-02-2019 | 23:00
JAYAPURASERUI15-02-2019 | 04:0015-02-2019 | 22:00
SERUISORONG15-02-2019 | 23:5916-02-2019 | 22:00
SORONGAMBON16-02-2019 | 23:5917-02-2019 | 19:00
AMBONBAU-BAU17-02-2019 | 21:0018-02-2019 | 18:00
BAU-BAUMAKASSAR18-02-2019 | 20:0019-02-2019 | 09:00
MAKASSARTANJUNG PERAK [SURABAYA]19-02-2019 | 11:0020-02-2019 | 11:00
TANJUNG PERAK [SURABAYA]TANJUNG PRIOK [JAKARTA]20-02-2019 | 13:0021-02-2019 | 12:00

TANJUNG PRIOK – SURABAYA – MAKASSAR – BAU-BAU – AMBON – SORONG – SERUI – JAYAPURA

Keterangan

  • Perlu anda ketahui bahwa jadwal keberangkatan kapal pelni dobonsolo ini, sewaktu-waktu bisa mengalami perubahan tanpa adanya pemberitahuan terlebih dahulu yang disebabkan banyak faktor, seperti karena keterlambatan keberangkatan dari pelabuhan sebelumnya atau disebabkan oleh penyebab lainnya.
  • Kapal pelni dobonsolo ini hanya menyediakan tiket kelas ekonomi saja, jadi anda jangan berharap untuk mencari tiket kelas 1 atau kelas 2.
  • Harga tiket kapal pelni ini dibedakan berdasarkan kelompok usia tertentu yang terbagi ke dalam 3 golongan yaitu bayi (0-23 bulan), anak (2-11 tahun) dan dewasa ( > 11 tahun).

Harga Tiket Kapal Pelni Dobonsolo Terbaru

  • harga tiket kapal Dobonsolo Serui Sorong >>> Rp 294.000     Rp 223.000     Rp 36.000
  • harga tiket kapal Dobonsolo Surabaya Makassar >>> Rp 272.000     Rp 210.000     Rp 32.000
  • harga tiket kapal Dobonsolo Makassar Bau-Bau >>> Rp 168.500     Rp 132.500     Rp 21.000

Demikian sedikit informasi jadwal kapal dobonsolo bulan ini, semoga dengan adanya informasi jadwal keberangkatan kapal laut dobonsolo tujuan Tanjung Priok Jakarta, Surabaya, Makassar, Bau Bau, Ambon, Sorong, Serui, Jayapura bulan ini, bisa menjadikan informasi yang sangat bermanfaat bagi anda dan mengatur jadwal keberangkatan anda menuju tempat tujuan anda.

Kata Kunci Jadwal Kapal Dobonsolo : Jadwal Kapal Dobonsolo Januari 2019 | Jadwal KM Dobonsolo Pebruari 2019 | Jadwal Kapal Motor Dobonsolo Maret 2019 | Jadwal Kapal Pelni Dobonsolo April 2019 | Jadwal Kapal Laut Dobonsolo Mei 2019 |  Jadwal Keberangkatan Kapal Dobonsolo  Juni 2019 | Jadwal Keberangkatan KM Dobonsolo Juli 2019 | Jadwal Keberangkatan Kapal Motor Dobonsolo Agustus 2019 | Jadwal Keberangkatan Kapal Pelni Dobonsolo September 2019 | Jadwal Keberangkatan Kapal Laut Dobonsolo Oktober 2019 | Jadwal Terbaru Kapal Dobonsolo Nopember Tahun 2019 | Jadwal Terbaru Kapal Pelni Dobonsolo  Desember Tahun 2019.

Kata Kunci Selanjutnya :

  • Jadwal Kapal Pelni Dobonsolo Januari 2019
  • Jadwal Kapal Pelni Dobonsolo Februari 2019
  • Jadwal Kapal Pelni Dobonsolo Maret 2019
  • Jadwal Kapal Pelni Dobonsolo April 2019
  • Jadwal Kapal Pelni Dobonsolo Mei 2019
  • Jadwal Kapal Pelni Dobonsolo Juni 2019
  • Jadwal Kapal Pelni Dobonsolo Juli 2019
  • Jadwal Kapal Pelni Dobonsolo Agustus 2019
  • Jadwal Kapal Pelni Dobonsolo September 2019
  • Jadwal Kapal Pelni Dobonsolo Oktober 2019
  • Jadwal Kapal Pelni Dobonsolo November 2019
  • Jadwal Kapal Pelni Dobonsolo Desember 2019

Sumber : terupdate.net